Burnsville, North Carolina, United States (28714)
Lat: 35.92N, Lon: 82.3W
Wx Zone: NCZ049
Local Info
Past Weather Observations for Saturday, May 28, 2016

NOTE: This archive is for the closest National Weather Service station to Burnsville. Information may differ from the station used for current weather conditions.

Click here for Long-term Archive

Time Weather Temperature Dewpoint Humidity Pressure Winds Precip Visibility
23:54
Clear
64°F / 18°C 61°F / 16°C 88% 30.18 in
(1022 mb)
Calm - 9SM
22:54
Partly Cloudy
64°F / 18°C 61°F / 16°C 88% 30.18 in
(1022 mb)
Calm - 10SM
21:54
Mostly Cloudy
66°F / 19°C 61°F / 16°C 83% 30.18 in
(1022 mb)
Calm - 10SM
20:54
Mostly Cloudy
70°F / 21°C 61°F / 16°C 73% 30.15 in
(1021 mb)
Calm - 10SM
19:54
Partly Cloudy
72°F / 22°C 61°F / 16°C 69% 30.15 in
(1021 mb)
Calm - 10SM
18:54
Partly Cloudy
73°F / 23°C 61°F / 16°C 65% 30.12 in
(1020 mb)
S 10.4 mph
(S 17 kph)
- 10SM
17:54
Partly Cloudy
77°F / 25°C 59°F / 15°C 54% 30.12 in
(1020 mb)
S 11.5 mph
(S 19 kph)
- 10SM
16:54
Partly Cloudy
79°F / 26°C 59°F / 15°C 51% 30.12 in
(1020 mb)
S 11.5 mph
(S 19 kph)
- 10SM
15:54
Partly Cloudy
79°F / 26°C 59°F / 15°C 51% 30.12 in
(1020 mb)
SSE 10.4 mph
(SSE 17 kph)
- 10SM
14:54
Partly Cloudy
81°F / 27°C 61°F / 16°C 51% 30.15 in
(1021 mb)
S 12.7 mph
(S 20 kph)
- 10SM
13:54
Overcast
75°F / 24°C 63°F / 17°C 65% 30.15 in
(1021 mb)
Calm - 10SM
12:54
Overcast
73°F / 23°C 64°F / 18°C 74% 30.18 in
(1022 mb)
SW 4.6 mph
(SW 7 kph)
0.02 in
(0.51 mm)
10SM
12:02
Overcast
Light Rain
72°F / 22°C 63°F / 17°C 73% 30.18 in
(1022 mb)
Calm 0.01 in
(0.25 mm)
7SM
11:54
Overcast
Heavy Rain
70°F / 21°C 63°F / 17°C 78% 30.18 in
(1022 mb)
SW 4.6 mph
(SW 7 kph)
0.26 in
(6.60 mm)
2 1/2SM
11:42
Overcast
Heavy Rain
70°F / 21°C 64°F / 18°C 83% 30.18 in
(1022 mb)
S 8.1 mph
(S 13 kph)
0.11 in
(2.79 mm)
1 3/4SM
10:54
Clear
77°F / 25°C 61°F / 16°C 57% 30.18 in
(1022 mb)
S 6.9 mph
(S 11 kph)
- 10SM
09:54
Clear
75°F / 24°C 63°F / 17°C 65% 30.18 in
(1022 mb)
Calm - 10SM
08:54
Clear
72°F / 22°C 61°F / 16°C 69% 30.21 in
(1023 mb)
Variable 3.5 mph
(Variable 6 kph)
- 10SM
07:54
Clear
64°F / 18°C 61°F / 16°C 88% 30.21 in
(1023 mb)
Calm - 10SM
06:54
Partly Cloudy
61°F / 16°C 57°F / 14°C 88% 30.18 in
(1022 mb)
SE 3.5 mph
(SE 6 kph)
- 8SM
06:45
Partly Cloudy
61°F / 16°C 57°F / 14°C 88% 30.18 in
(1022 mb)
E 3.5 mph
(E 6 kph)
- 7SM
06:17
Overcast
Fog And Mist
59°F / 15°C 57°F / 14°C 94% 30.21 in
(1023 mb)
Calm - 3SM
06:13
Overcast
Fog And Mist
59°F / 15°C 57°F / 14°C 94% 30.18 in
(1022 mb)
Calm - 1 1/2SM
05:54
Overcast
Fog
59°F / 15°C 57°F / 14°C 94% 30.18 in
(1022 mb)
Calm - 1/2SM
05:46
Overcast
Fog
59°F / 15°C 57°F / 14°C 94% 30.18 in
(1022 mb)
Calm - 1/2SM
05:21
Overcast
Fog And Mist
59°F / 15°C 57°F / 14°C 94% 30.18 in
(1022 mb)
Calm - 1SM
05:06
Overcast
Fog And Mist
59°F / 15°C 57°F / 14°C 94% 30.18 in
(1022 mb)
Calm - 1 1/2SM
04:54
Obscured
Fog And Mist
59°F / 15°C 57°F / 14°C 94% 30.18 in
(1022 mb)
Calm - 3/4SM
04:38
Obscured
Fog
59°F / 15°C 57°F / 14°C 94% 30.18 in
(1022 mb)
Calm - 1/2SM
04:21
Obscured
Fog
61°F / 16°C 57°F / 14°C 88% 30.18 in
(1022 mb)
Calm - 1/4SM
04:12
Mostly Cloudy
Fog
59°F / 15°C 57°F / 14°C 94% 30.18 in
(1022 mb)
Calm - 1/4SM
04:05
Mostly Cloudy
Fog And Mist
59°F / 15°C 57°F / 14°C 94% 30.15 in
(1021 mb)
Calm - 1 1/4SM
04:03
Mostly Cloudy
Fog And Mist
59°F / 15°C 57°F / 14°C 94% 30.15 in
(1021 mb)
Calm - 2SM
03:54
Mostly Cloudy
Fog And Mist
59°F / 15°C 57°F / 14°C 94% 30.15 in
(1021 mb)
Calm - 6SM
03:44
Mostly Cloudy
Fog And Mist
59°F / 15°C 57°F / 14°C 94% 30.18 in
(1022 mb)
Calm - 6SM
03:35
Mostly Cloudy
Fog And Mist
59°F / 15°C 57°F / 14°C 94% 30.18 in
(1022 mb)
S 3.5 mph
(S 6 kph)
- 3SM
03:32
Mostly Cloudy
Fog And Mist
59°F / 15°C 57°F / 14°C 94% 30.18 in
(1022 mb)
Calm - 1 1/2SM
03:24
Obscured
Fog And Mist
59°F / 15°C 57°F / 14°C 94% 30.18 in
(1022 mb)
SSE 3.5 mph
(SSE 6 kph)
- 1SM
03:22
Mostly Cloudy
Fog And Mist
61°F / 16°C 57°F / 14°C 88% 30.18 in
(1022 mb)
SSE 4.6 mph
(SSE 7 kph)
- 1 3/4SM
02:54
Mostly Cloudy
61°F / 16°C 57°F / 14°C 88% 30.18 in
(1022 mb)
Calm - 8SM
02:52
Mostly Cloudy
61°F / 16°C 57°F / 14°C 88% 30.18 in
(1022 mb)
Calm - 8SM
02:38
Partly Cloudy
61°F / 16°C 57°F / 14°C 88% 30.18 in
(1022 mb)
Calm - 8SM
01:54
Clear
61°F / 16°C 57°F / 14°C 88% 30.18 in
(1022 mb)
Calm - 8SM
00:54
Clear
63°F / 17°C 59°F / 15°C 88% 30.18 in
(1022 mb)
Calm - 8SM
00:03
Overcast
64°F / 18°C 61°F / 16°C 88% 30.18 in
(1022 mb)
SE 3.5 mph
(SE 6 kph)
- 9SM
Time Weather Temperature Dewpoint Humidity Pressure Winds Precip Visibility


Weather for websites

WeatherForYou.com, LLC is not responsible for any damages or problems caused by this service. Current weather conditions are obtained from the closest station including government and personal stations which may have varying degrees of accuracy. Weather forecasts are derived from the NOAA NDFD. Like all things, this site belongs to Jesus Christ... He just trusts us to maintain it. If you have any questions or comments email webmaster@weatherforyou.com

Copyright © 2016, WeatherForYou.com LLC. All rights reserved.